FW1587 Weather Reports


Display with metric or nautical units.
time (UTC)temp
F
wind
direction
speed
MPH
gust
MPH
rain 1hr
in
rain 24hr
in
rain mn
in
humidity
%
barometer
mb
20260502211532 60 262 3.0 5.0 0.00 0.00 0.00 60 1013.5
20260502210031 61 262 2.0 6.0 0.00 0.00 0.00 59 1013.6
20260502204535 61 253 3.0 4.0 0.00 0.00 0.00 58 1013.6
20260502201531 62 276 2.0 7.0 0.00 0.00 0.00 56 1013.7
20260502200054 63 299 1.0 4.0 0.00 0.00 0.00 54 1013.8
20260502194530 63 279 0.0 1.0 0.00 0.00 0.00 54 1013.6
20260502191530 63 279 1.0 2.0 0.00 0.00 0.00 54 1013.6
20260502190028 63 279 0.0 3.0 0.00 0.00 0.00 53 1013.5
20260502184528 63 279 0.0 2.0 0.00 0.00 0.00 54 1013.4
20260502181529 63 278 1.0 3.0 0.00 0.00 0.00 54 1013.4
20260502161522 71 12 1.0 5.0 0.00 0.00 0.00 45 1013.8
20260502151517 72 35 3.0 6.0 0.00 0.00 0.00 42 1014.4
20260502130105 70 88 4.0 6.0 0.00 0.00 0.00 46 1016.4
20260502121558 69 119 3.0 5.0 0.00 0.00 0.00 51 1016.9
20260502120105 68 102 3.0 6.0 0.00 0.00 0.00 54 1017.1
20260502114543 67 67 4.0 9.0 0.00 0.00 0.00 52 1017.4
20260502111545 67 56 5.0 10.0 0.00 0.00 0.00 56 1017.9
20260502110042 67 80 3.0 9.0 0.00 0.00 0.00 60 1018.1
20260502104537 66 31 3.0 6.0 0.00 0.00 0.00 59 1018.4
20260502101545 65 72 3.0 5.0 0.00 0.00 0.00 60 1018.7
20260502091521 62 86 1.0 6.0 0.00 0.00 0.00 60 1019.4
20260502071514 60 252 3.0 8.0 0.00 0.00 0.00 59 1019.9
20260502070007 59 297 3.0 9.0 0.00 0.00 0.00 60 1019.9
20260502064501 59 258 0.0 5.0 0.00 0.00 0.00 60 1019.9
20260502063159 58 249 0.0 5.0 0.00 0.00 0.00 61 1019.9
20260502061559 58 252 1.0 8.0 0.00 0.00 0.00 61 1020.0
20260502060106 57 275 1.0 7.0 0.00 0.00 0.00 61 1020.0
20260502054610 57 243 1.0 7.0 0.00 0.00 0.00 61 1020.1
20260502053151 56 287 1.0 9.0 0.00 0.00 0.00 61 1020.0
20260502051552 55 293 1.0 5.0 0.00 0.00 0.00 61 1020.1
20260502050052 53 270 0.0 4.0 0.00 0.00 0.00 61 1020.1
20260502044550 52 289 0.0 2.0 0.00 0.00 0.00 60 1020.2
20260502043149 51 260 0.0 1.0 0.00 0.00 0.00 58 1020.1
20260502041548 51 260 0.0 1.0 0.00 0.00 0.00 57 1020.1
20260502040051 51 260 0.0 2.0 0.00 0.00 0.00 57 1020.0
20260502034550 51 260 0.0 0.0 0.00 0.00 0.00 57 1020.0
20260502033148 51 260 0.0 0.0 0.00 0.00 0.00 56 1020.0
20260502031544 51 260 1.0 3.0 0.00 0.00 0.00 58 1020.0
20260502030047 52 260 0.0 2.0 0.00 0.00 0.00 59 1020.1
20260502024543 52 260 0.0 1.0 0.00 0.00 0.00 61 1020.1
20260502023140 52 260 1.0 2.0 0.00 0.00 0.00 61 1020.2
20260502021540 52 287 0.0 3.0 0.00 0.00 0.00 62 1020.1
20260502020040 52 287 0.0 0.0 0.00 0.00 0.00 62 1020.1
20260502014537 52 287 0.0 1.0 0.00 0.00 0.00 62 1020.2
20260502013136 52 287 0.0 2.0 0.00 0.00 0.00 62 1020.3
20260502011537 53 287 0.0 0.0 0.00 0.00 0.00 62 1020.3
20260502010041 53 285 0.0 0.0 0.00 0.00 0.00 61 1020.3
20260502004533 53 283 0.0 0.0 0.00 0.00 0.00 59 1020.4
20260502003130 53 283 0.0 2.0 0.00 0.00 0.00 58 1020.3
20260502001531 54 283 0.0 0.0 0.00 0.00 0.00 57 1020.5
20260502000026 54 283 0.0 0.0 0.00 0.00 0.00 56 1020.5
20260501234523 55 283 0.0 2.0 0.00 0.00 0.00 55 1020.6
20260501233124 55 283 0.0 2.0 0.00 0.00 0.00 55 1020.5
20260501231522 55 283 0.0 1.0 0.00 0.00 0.00 58 1020.6
20260501230021 55 283 0.0 1.0 0.00 0.00 0.00 58 1020.6
20260501224524 55 279 0.0 2.0 0.00 0.00 0.00 58 1020.7
20260501223118 55 258 0.0 0.0 0.00 0.00 0.00 57 1020.6
20260501221517 55 257 0.0 2.0 0.00 0.00 0.00 57 1020.6
20260501220013 56 266 1.0 4.0 0.00 0.00 0.00 54 1020.5
20260501214526 58 253 3.0 5.0 0.00 0.00 0.00 50 1020.6